This demonstration page uses our WeatherBlox Daily Observations layout. Learn more.

38.88101, -77.10428

Hourly Observations for March 8, 2020

Temp ( °F °C ) Dew Point ( °F °C ) Humidity (%) Winds ( mph kmh ) Pressure ( in mb ) Visibility ( mi km ) Precip ( " mm )
12:52 am 00:52 Mostly Clear 42 5.6 20 -6.7 41 41 NW 9 15 30.5 1033 10 16.0934 0 0
1:52 am 01:52 Mostly Clear 39 3.9 20 -6.7 46 46 NNW 7 11 30.51 1033 10 16.0934 0 0
3:52 am 03:52 Clear 40 4.4 20 -6.7 45 45 NNE 3 6 30.5 1033 10 16.0934 0 0
4:52 am 04:52 Clear 39 3.9 21 -6.1 48 48 NNW 3 6 30.52 1033 10 16.0934 0 0
5:52 am 05:52 Clear 38 3.3 22 -5.6 52 52 N 5 7 30.53 1034 10 16.0934 0 0
6:52 am 06:52 Clear 39 3.9 23 -5 53 53 NNE 3 6 30.54 1034 10 16.0934 0 0
7:52 am 07:52 Sunny 38 3.3 23 -5 55 55 WSW 5 7 30.55 1035 10 16.0934 0 0
8:52 am 08:52 Sunny 42 5.6 24 -4.4 49 49 SW 5 7 30.58 1036 10 16.0934 0 0
9:52 am 09:52 Sunny 45 7.2 24 -4.4 44 44 SSW 7 11 30.58 1036 10 16.0934 0 0
10:52 am 10:52 Mostly Sunny 49 9.4 23 -5 36 36 S 9 15 30.58 1036 10 16.0934 0 0
11:52 am 11:52 Mostly Sunny 53 11.7 17 -8.3 24 24 SSW 10 17 30.57 1035 10 16.0934 0 0
12:52 pm 12:52 Mostly Sunny 55 12.8 24 -4.4 30 30 S 13 20 30.55 1034 10 16.0934 0 0
1:52 pm 13:52 Mostly Sunny 56 13.3 25 -3.9 30 30 S 14 22 30.51 1033 10 16.0934 0 0
2:52 pm 14:52 Partly Cloudy 58 14.4 23 -5 26 26 S 13 20 30.47 1032 10 16.0934 0 0
3:52 pm 15:52 Mostly Cloudy 59 15 24 -4.4 26 26 S 13 20 30.45 1031 10 16.0934 0 0
4:52 pm 16:52 Partly Cloudy 61 16.1 13 -10.6 15 15 S 13 20 30.43 1031 10 16.0934 0 0
5:52 pm 17:52 Partly Cloudy 60 15.6 16 -8.9 18 18 S 12 19 30.43 1030 10 16.0934 0 0
6:52 pm 18:52 Partly Cloudy 56 13.3 27 -2.8 33 33 S 9 15 30.42 1030 10 16.0934 0 0
7:52 pm 19:52 Mostly Cloudy 53 11.7 30 -1.1 41 41 S 10 17 30.43 1031 10 16.0934 0 0
8:52 pm 20:52 Mostly Clear 52 11.1 26 -3.3 37 37 S 9 15 30.43 1031 10 16.0934 0 0
9:52 pm 21:52 Mostly Clear 50 10 28 -2.2 43 43 SSW 7 11 30.44 1031 10 16.0934 0 0
10:52 pm 22:52 Mostly Clear 50 10 25 -3.9 38 38 SSW 8 13 30.43 1031 10 16.0934 0 0
11:52 pm 23:52 Clear 49 9.4 33 0.6 55 55 S 10 17 30.42 1030 10 16.0934 0 0

Powered by AerisWeather